This is the latest recevied weather packets stored in our database for station/object W3BRL. If no packets are shown the sender has not sent any weather packets the latest 10 day(s).
| Time | Temp. | Humidity | Pressure | Rain* | Wind** | Luminosity | Snow |
|---|---|---|---|---|---|---|---|
| 1777847021 | 13.89° C | 33% | 1011.5 hPa | 0 mm | - | 78 W/m² | - |
| 1777846718 | 14.44° C | 33% | 1011.6 hPa | 0 mm | - | 154 W/m² | - |
| 1777846417 | 15° C | 32% | 1011.7 hPa | 0 mm | - | 235 W/m² | - |
| 1777846112 | 15° C | 31% | 1011.6 hPa | 0 mm | - | 272 W/m² | - |
| 1777845809 | 15° C | 32% | 1011.6 hPa | 0 mm | - | 340 W/m² | - |
| 1777845506 | 14.44° C | 34% | 1011.5 hPa | 0 mm | - | 361 W/m² | - |
| 1777845204 | 15° C | 34% | 1011.3 hPa | 0 mm | - | 143 W/m² | - |
| 1777844901 | 13.89° C | 33% | 1011.5 hPa | 0 mm | - | 312 W/m² | - |
| 1777844598 | 13.89° C | 34% | 1011.4 hPa | 0 mm | - | 424 W/m² | - |
| 1777844295 | 14.44° C | 34% | 1011.4 hPa | 0 mm | - | 141 W/m² | - |
| 1777843993 | 15° C | 32% | 1011.4 hPa | 0 mm | - | 114 W/m² | - |
| 1777843690 | 14.44° C | 33% | 1011.3 hPa | 0 mm | - | 440 W/m² | - |
| 1777843388 | 14.44° C | 32% | 1011.5 hPa | 0 mm | - | 466 W/m² | - |
| 1777843085 | 14.44° C | 34% | 1011.4 hPa | 0 mm | - | 505 W/m² | - |
| 1777842781 | 14.44° C | 33% | 1011.5 hPa | 0 mm | - | 525 W/m² | - |
| 1777842481 | 14.44° C | 33% | 1011.6 hPa | 0 mm | - | 338 W/m² | - |
| 1777842179 | 13.89° C | 33% | 1011.4 hPa | 0 mm | - | 579 W/m² | - |
| 1777841874 | 14.44° C | 33% | 1011.6 hPa | 0 mm | - | 195 W/m² | - |
| 1777841571 | 13.89° C | 33% | 1011.7 hPa | 0 mm | - | 271 W/m² | - |
| 1777841267 | 13.89° C | 34% | 1011.8 hPa | 0 mm | - | 238 W/m² | - |
| 1777840965 | 14.44° C | 32% | 1011.7 hPa | 0 mm | - | 236 W/m² | - |
| 1777840662 | 13.89° C | 32% | 1011.9 hPa | 0 mm | - | 454 W/m² | - |
| 1777840360 | 14.44° C | 33% | 1011.9 hPa | 0 mm | - | 180 W/m² | - |
| 1777840057 | 13.89° C | 34% | 1011.9 hPa | 0 mm | - | 706 W/m² | - |
| 1777839754 | 13.89° C | 33% | 1011.8 hPa | 0 mm | - | 180 W/m² | - |
* Rain latest hour (hover to see other rain measurements)
** Current wind speed in m/s (hover to see current wind gust speed)